This is the latest recevied weather packets stored in our database for station/object K5MGY. If no packets are shown the sender has not sent any weather packets the latest 1 day(s).
| Time | Temp. | Humidity | Pressure | Rain* | Wind** | Luminosity | Snow |
|---|---|---|---|---|---|---|---|
| 1778014995 | 33.33° C | 53% | 1027.8 hPa | 0 mm | 0.45 m/s, 231° | 391 W/m² | - |
| 1778014692 | 33.33° C | 51% | 1028.1 hPa | 0 mm | 0.45 m/s, 240° | 430 W/m² | - |
| 1778014390 | 32.78° C | 51% | 1028 hPa | 0 mm | 0.89 m/s, 189° | 463 W/m² | - |
| 1778014087 | 32.78° C | 50% | 1028.2 hPa | 0 mm | 0.89 m/s, 168° | 149 W/m² | - |
| 1778013784 | 32.22° C | 53% | 1028.2 hPa | 0 mm | 0.45 m/s, 180° | 130 W/m² | - |
| 1778013481 | 32.22° C | 54% | 1028.2 hPa | 0 mm | 0 m/s | 205 W/m² | - |
| 1778013178 | 32.22° C | 53% | 1028.4 hPa | 0 mm | 0.89 m/s, 192° | 181 W/m² | - |
| 1778012874 | 32.22° C | 53% | 1028.4 hPa | 0 mm | 0.89 m/s, 214° | 204 W/m² | - |
| 1778012571 | 32.22° C | 54% | 1028.4 hPa | 0 mm | 0.45 m/s, 156° | 176 W/m² | - |
| 1778012267 | 32.22° C | 52% | 1028.5 hPa | 0 mm | 0.89 m/s, 195° | 207 W/m² | - |
| 1778011965 | 32.78° C | 53% | 1028.6 hPa | 0 mm | 0.89 m/s, 263° | 376 W/m² | - |
| 1778011663 | 32.78° C | 53% | 1028.7 hPa | 0 mm | 0.89 m/s, 189° | 293 W/m² | - |
| 1778011360 | 32.78° C | 54% | 1028.7 hPa | 0 mm | 0.45 m/s, 227° | 355 W/m² | - |
| 1778011055 | 32.78° C | 55% | 1028.6 hPa | 0 mm | 0.45 m/s, 173° | 723 W/m² | - |
| 1778010753 | 32.22° C | 55% | 1028.6 hPa | 0 mm | 0.89 m/s, 192° | 671 W/m² | - |
| 1778010450 | 32.78° C | 54% | 1028.7 hPa | 0 mm | 0.45 m/s, 278° | 487 W/m² | - |
| 1778010146 | 32.22° C | 56% | 1028.8 hPa | 0 mm | 0.45 m/s, 277° | 727 W/m² | - |
| 1778009842 | 31.67° C | 56% | 1028.6 hPa | 0 mm | 0 m/s | 596 W/m² | - |
| 1778009540 | 31.67° C | 56% | 1029 hPa | 0 mm | 0.89 m/s, 264° | 514 W/m² | - |
| 1778009238 | 31.67° C | 56% | 1028.8 hPa | 0 mm | 0.45 m/s, 231° | 747 W/m² | - |
| 1778008935 | 31.67° C | 57% | 1028.5 hPa | 0 mm | 0.89 m/s, 283° | 667 W/m² | - |
| 1778008634 | 31.67° C | 57% | 1028.6 hPa | 0 mm | 1.34 m/s, 236° | 681 W/m² | - |
| 1778008332 | 31.11° C | 58% | 1028.7 hPa | 0 mm | 0.45 m/s, 321° | 561 W/m² | - |
| 1778008028 | 31.11° C | 58% | 1028.8 hPa | 0 mm | 1.79 m/s, 186° | 638 W/m² | - |
| 1778007727 | 31.67° C | 56% | 1029 hPa | 0 mm | 2.24 m/s, 163° | 323 W/m² | - |
* Rain latest hour (hover to see other rain measurements)
** Current wind speed in m/s (hover to see current wind gust speed)